Coolangatta Observation History
Time Wind Speed Temp Pressure Rel. Hum Rain
24/03:00am NW 6-8 kts 24.7°c 1011.9 hPa 85% 0.0mm
24/02:30am NNW 6-8 kts 24.9°c 1011.9 hPa 84% 0.0mm
24/02:00am NNW 6-9 kts 25.2°c 1011.8 hPa 84% 0.0mm
24/01:30am N 3-6 kts 25.0°c 1011.9 hPa 84% 0.0mm
24/01:00am NNW 5-7 kts 25.3°c 1012.1 hPa 82% 0.0mm
24/12:30am N 5-7 kts 25.1°c 1012.3 hPa 82% 0.0mm
24/12:00am NW 4-6 kts 25.5°c 1012.8 hPa 75% 0.0mm
Time Wind Speed Temp Pressure Rel. Hum Rain
23/11:30pm NNW 4-5 kts 25.1°c 1013.0 hPa 78% 0.0mm
23/11:00pm NW 5-7 kts 25.5°c 1013.0 hPa 79% 0.0mm
23/10:30pm NNW 10-13 kts 25.7°c 1012.5 hPa 79% 0.0mm
23/10:00pm NNW 10-13 kts 25.7°c 1012.2 hPa 79% 0.0mm
23/09:30pm N 13-15 kts 25.9°c 1011.7 hPa 78% 0.0mm
23/09:00pm N 13-15 kts 25.9°c 1011.6 hPa 76% 0.0mm
23/08:30pm N 11-15 kts 25.9°c 1011.6 hPa 78% 0.0mm
23/08:00pm N 13-17 kts 25.9°c 1011.3 hPa 77% 0.0mm
23/07:30pm N 14-18 kts 26.0°c 1011.0 hPa 78% 0.0mm
23/07:00pm N 15-19 kts 26.3°c 1010.5 hPa 74% 0.0mm
23/06:30pm N 17-22 kts 26.6°c 1010.3 hPa 72% 0.0mm
23/06:00pm N 17-23 kts 26.8°c 1010.2 hPa 72% 0.0mm
23/05:30pm N 17-23 kts 27.1°c 1009.9 hPa 73% 0.0mm
23/05:00pm N 17-21 kts 27.1°c 1009.9 hPa 74% 0.0mm
23/04:30pm N 16-21 kts 28.2°c 1009.9 hPa 68% 0.0mm
23/04:00pm N 17-22 kts 28.1°c 1010.3 hPa 68% 0.0mm
23/03:30pm N 18-22 kts 28.5°c 1010.2 hPa 67% 0.0mm
23/03:00pm N 18-22 kts 28.9°c 1010.6 hPa 68% 0.0mm
23/02:30pm N 17-23 kts 29.0°c 1011.1 hPa 66% 0.0mm
23/02:00pm N 18-22 kts 29.3°c 1011.3 hPa 64% 0.0mm
23/01:30pm N 18-24 kts 29.8°c 1011.5 hPa 64% 0.0mm
23/01:00pm N 17-21 kts 28.5°c 1011.8 hPa 67% 0.0mm
23/12:30pm N 19-25 kts 29.2°c 1011.9 hPa 66% 0.0mm
23/12:00pm NNE 17-23 kts 29.3°c 1012.4 hPa 64% 0.0mm
23/11:30am NNE 17-21 kts 29.0°c 1013.0 hPa 66% 0.0mm
23/11:00am NNE 15-20 kts 29.2°c 1013.5 hPa 66% 0.0mm
23/10:30am NNE 15-18 kts 29.7°c 1013.7 hPa 64% 0.0mm
23/10:00am N 15-18 kts 27.6°c 1013.3 hPa 70% 0.0mm
23/09:30am N 14-18 kts 29.3°c 1013.7 hPa 66% 0.0mm
23/09:00am N 14-18 kts 28.6°c 1013.6 hPa 66% 0.0mm
23/08:30am NNW 10-15 kts 29.4°c 1013.7 hPa 58% 0.0mm
23/08:00am NW 12-17 kts 27.8°c 1013.8 hPa 64% 0.0mm
23/07:30am NW 10-14 kts 27.4°c 1013.7 hPa 66% 0.0mm
23/07:00am NNW 9-13 kts 26.5°c 1013.6 hPa 71% 0.0mm
23/06:30am NNW 10-15 kts 25.5°c 1013.5 hPa 77% 0.0mm
23/06:00am NNW 7-9 kts 24.7°c 1013.4 hPa 81% 0.0mm
23/05:30am NNW 7-9 kts 24.0°c 1013.2 hPa 83% 0.0mm
23/05:00am NNW 8-11 kts 24.1°c 1013.1 hPa 85% 0.0mm
23/04:30am NNW 8-11 kts 24.1°c 1012.9 hPa 85% 0.0mm
23/04:00am NNW 8-10 kts 24.1°c 1012.8 hPa 85% 0.0mm
23/03:30am NNW 7-11 kts 24.1°c 1012.8 hPa 84% 0.0mm
23/03:00am NW 7-10 kts 24.2°c 1013.0 hPa 84% 0.0mm
23/02:30am NNW 8-11 kts 24.5°c 1013.1 hPa 82% 0.0mm
23/02:00am NW 8-13 kts 24.6°c 1013.6 hPa 82% 0.0mm
23/01:30am NW 7-12 kts 24.9°c 1014.0 hPa 80% 0.0mm
23/01:00am NNW 10-14 kts 25.5°c 1014.1 hPa 79% 0.0mm
23/12:30am NNW 10-14 kts 25.6°c 1014.5 hPa 78% 0.0mm
23/12:00am N 13-17 kts 25.7°c 1014.6 hPa 78% 0.0mm
Time Wind Speed Temp Pressure Rel. Hum Rain
22/11:30pm N 13-17 kts 25.8°c 1015.1 hPa 77% 0.0mm
22/11:00pm N 13-15 kts 25.8°c 1015.6 hPa 78% 0.0mm
22/10:30pm N 11-14 kts 25.7°c 1016.1 hPa 78% 0.0mm
22/10:00pm N 11-13 kts 25.9°c 1016.5 hPa 77% 0.0mm
22/09:30pm N 10-12 kts 25.9°c 1016.8 hPa 76% 0.0mm
22/09:00pm NNE 9-11 kts 26.2°c 1016.8 hPa 75% 0.0mm
22/08:30pm NNE 9-11 kts 26.2°c 1016.7 hPa 73% 0.0mm
22/08:00pm NNE 8-10 kts 26.3°c 1016.6 hPa 71% 0.0mm
22/07:30pm NE 7-9 kts 26.4°c 1016.6 hPa 70% 0.0mm
22/07:00pm NE 7-9 kts 26.5°c 1016.4 hPa 70% 0.0mm
22/06:30pm NE 8-9 kts 26.5°c 1016.2 hPa 70% 0.0mm
22/06:00pm NE 8-9 kts 26.8°c 1016.2 hPa 70% 0.0mm
22/05:30pm NE 9-11 kts 27.0°c 1015.7 hPa 69% 0.0mm
22/05:00pm NNE 9-12 kts 27.2°c 1015.3 hPa 67% 0.0mm
22/04:30pm NNE 10-13 kts 27.3°c 1015.0 hPa 64% 0.0mm
22/04:00pm NNE 11-14 kts 27.8°c 1015.1 hPa 63% 0.0mm
22/03:30pm NNE 12-15 kts 28.5°c 1015.1 hPa 60% 0.0mm
22/03:00pm NNE 12-15 kts 28.7°c 1015.3 hPa 58% 0.0mm
22/02:30pm NE 12-16 kts 29.3°c 1015.4 hPa 61% 0.0mm
22/02:00pm NE 12-15 kts 28.7°c 1015.6 hPa 59% 0.0mm
22/01:30pm NE 12-16 kts 28.7°c 1016.0 hPa 59% 0.0mm
22/01:00pm NE 12-15 kts 29.2°c 1016.3 hPa 58% 0.0mm
22/12:30pm NE 12-16 kts 28.8°c 1016.6 hPa 61% 0.0mm
22/12:00pm NE 11-14 kts 29.4°c 1016.9 hPa 57% 0.0mm
22/11:30am NE 11-14 kts 28.2°c 1017.3 hPa 60% 0.0mm
22/11:00am NE 10-13 kts 28.3°c 1017.4 hPa 61% 0.0mm
22/10:30am NE 10-14 kts 28.4°c 1017.6 hPa 63% 0.0mm
22/10:00am NE 9-12 kts 28.1°c 1017.6 hPa 63% 0.0mm
22/09:30am NE 7-11 kts 28.3°c 1017.7 hPa 63% 0.0mm
22/09:00am NE 7-9 kts 27.8°c 1017.7 hPa 64% 0.0mm
22/08:30am WSW 4-9 kts 28.0°c 1017.7 hPa 63% 0.0mm
22/08:00am SSW 3-4 kts 25.8°c 1017.7 hPa 70% 0.0mm
22/07:30am SSE 4-5 kts 25.5°c 1017.7 hPa 73% 0.0mm
22/07:00am SSW 2-5 kts 25.1°c 1017.5 hPa 78% 0.0mm
22/06:30am SW 3-5 kts 23.1°c 1017.2 hPa 86% 0.0mm
22/06:00am CALM 0 kts 21.9°c 1017.0 hPa 91% 0.0mm
22/05:30am SW 4-6 kts 21.1°c 1016.8 hPa 94% 0.0mm
22/05:00am WSW 3-5 kts 20.8°c 1016.7 hPa 93% 0.0mm
22/04:30am CALM 0-2 kts 20.9°c 1016.5 hPa 92% 0.0mm
22/04:00am SW 1-5 kts 21.2°c 1016.4 hPa 91% 0.0mm
22/03:30am SW 3-4 kts 21.5°c 1016.2 hPa 91% 0.0mm
22/03:00am SW 1-4 kts 21.5°c 1016.3 hPa 90% 0.0mm
22/02:30am SW 4-5 kts 21.7°c 1016.6 hPa 90% 0.0mm
22/02:00am CALM 0-3 kts 21.5°c 1016.6 hPa 91% 0.0mm
22/01:30am SW 5-7 kts 21.8°c 1016.9 hPa 90% 0.0mm
22/01:00am WSW 3-5 kts 21.8°c 1017.0 hPa 89% 0.0mm
22/12:30am WSW 1-4 kts 22.2°c 1017.3 hPa 87% 0.0mm
22/12:00am WSW 5-7 kts 22.4°c 1017.6 hPa 88% 0.0mm